| time (UTC) | temp F | wind direction | speed MPH | gust MPH | rain 1hr in | rain 24hr in | rain mn in | humidity % | barometer mb |
| 20260509103017 | 45 | 0.0 | 0.0 | 0.00 | 0.05 | 0.04 | 96 | 1012.6 | |
| 20260509102517 | 45 | 0.0 | 0.0 | 0.00 | 0.05 | 0.04 | 96 | 1012.7 | |
| 20260509102017 | 45 | 0.0 | 0.0 | 0.00 | 0.05 | 0.04 | 95 | 1012.7 | |
| 20260509101517 | 45 | 0.0 | 0.0 | 0.00 | 0.05 | 0.04 | 95 | 1012.7 | |
| 20260509101018 | 45 | 0.0 | 0.0 | 0.00 | 0.05 | 0.04 | 95 | 1012.7 | |
| 20260509100517 | 45 | 0.0 | 0.0 | 0.00 | 0.05 | 0.04 | 95 | 1012.6 | |
| 20260509100017 | 45 | 0.0 | 0.0 | 0.00 | 0.05 | 0.04 | 95 | 1012.6 | |
| 20260509095517 | 45 | 0.0 | 0.0 | 0.00 | 0.05 | 0.04 | 95 | 1012.7 | |
| 20260509095016 | 45 | 0.0 | 0.0 | 0.00 | 0.05 | 0.04 | 95 | 1012.7 | |
| 20260509094517 | 45 | 0.0 | 0.0 | 0.00 | 0.05 | 0.04 | 95 | 1012.7 | |
| 20260509094017 | 46 | 0.0 | 0.0 | 0.00 | 0.05 | 0.04 | 95 | 1012.7 | |
| 20260509093517 | 46 | 0.0 | 0.0 | 0.00 | 0.05 | 0.04 | 95 | 1012.8 | |
| 20260509093017 | 46 | 0.0 | 0.0 | 0.00 | 0.05 | 0.04 | 95 | 1012.8 | |
| 20260509092516 | 46 | 0.0 | 0.0 | 0.00 | 0.05 | 0.04 | 95 | 1012.7 | |
| 20260509092017 | 46 | 0.0 | 0.0 | 0.00 | 0.05 | 0.04 | 95 | 1012.8 | |
| 20260509091517 | 46 | 0.0 | 0.0 | 0.00 | 0.05 | 0.04 | 95 | 1012.9 | |
| 20260509091017 | 46 | 0.0 | 0.0 | 0.01 | 0.05 | 0.04 | 95 | 1013.0 | |
| 20260509090517 | 46 | 0.0 | 0.0 | 0.01 | 0.05 | 0.04 | 95 | 1013.0 | |
| 20260509090016 | 46 | 0.0 | 0.0 | 0.01 | 0.05 | 0.04 | 95 | 1012.9 | |
| 20260509085516 | 46 | 0.0 | 0.0 | 0.01 | 0.05 | 0.04 | 95 | 1012.9 | |
| 20260509085016 | 46 | 0.0 | 0.0 | 0.01 | 0.05 | 0.04 | 95 | 1013.0 | |
| 20260509084516 | 46 | 0.0 | 0.0 | 0.01 | 0.05 | 0.04 | 95 | 1013.1 | |
| 20260509084017 | 46 | 0.0 | 0.0 | 0.01 | 0.05 | 0.04 | 95 | 1013.1 | |
| 20260509083516 | 46 | 0.0 | 0.0 | 0.01 | 0.05 | 0.04 | 95 | 1013.0 | |
| 20260509083016 | 47 | 0.0 | 0.0 | 0.01 | 0.05 | 0.04 | 94 | 1013.0 | |
| 20260509082516 | 47 | 0.0 | 0.0 | 0.01 | 0.05 | 0.04 | 94 | 1013.1 | |
| 20260509082016 | 47 | 0.0 | 0.0 | 0.02 | 0.05 | 0.04 | 94 | 1012.9 | |
| 20260509081516 | 47 | 0.0 | 0.0 | 0.02 | 0.05 | 0.04 | 94 | 1013.0 | |
| 20260509081016 | 47 | 0.0 | 0.0 | 0.01 | 0.04 | 0.04 | 94 | 1012.9 | |
| 20260509080516 | 47 | 0.0 | 0.0 | 0.02 | 0.04 | 0.03 | 94 | 1012.9 | |
| 20260509080017 | 47 | 0.0 | 0.0 | 0.02 | 0.04 | 0.03 | 94 | 1012.8 | |
| 20260509075516 | 47 | 0.0 | 0.0 | 0.02 | 0.04 | 0.03 | 94 | 1012.7 | |
| 20260509075016 | 47 | 0.0 | 0.0 | 0.02 | 0.04 | 0.03 | 94 | 1012.5 | |
| 20260509074516 | 47 | 0.0 | 0.0 | 0.02 | 0.04 | 0.03 | 94 | 1012.6 | |
| 20260509074016 | 47 | 0.0 | 0.0 | 0.02 | 0.04 | 0.03 | 94 | 1012.8 | |
| 20260509073516 | 47 | 0.0 | 0.0 | 0.02 | 0.04 | 0.03 | 94 | 1012.6 | |
| 20260509073016 | 47 | 0.0 | 0.0 | 0.03 | 0.04 | 0.03 | 94 | 1012.7 | |
| 20260509072516 | 47 | 0.0 | 0.0 | 0.03 | 0.04 | 0.03 | 94 | 1012.6 | |
| 20260509072016 | 47 | 0.0 | 0.0 | 0.02 | 0.03 | 0.02 | 93 | 1012.5 | |
| 20260509071516 | 47 | 0.0 | 0.0 | 0.02 | 0.03 | 0.02 | 93 | 1012.4 | |
| 20260509071016 | 47 | 0.0 | 0.0 | 0.02 | 0.03 | 0.02 | 93 | 1012.6 | |
| 20260509070517 | 48 | 0.0 | 0.0 | 0.01 | 0.02 | 0.01 | 93 | 1012.6 | |
| 20260509070016 | 48 | 0.0 | 0.0 | 0.01 | 0.02 | 0.01 | 93 | 1012.6 | |
| 20260509065516 | 48 | 0.0 | 0.0 | 0.01 | 0.02 | 0.01 | 93 | 1012.6 | |
| 20260509065016 | 48 | 0.0 | 0.0 | 0.01 | 0.02 | 0.01 | 92 | 1012.6 | |
| 20260509064516 | 48 | 0.0 | 0.0 | 0.01 | 0.02 | 0.01 | 92 | 1012.7 | |
| 20260509064017 | 48 | 0.0 | 0.0 | 0.01 | 0.02 | 0.01 | 92 | 1012.7 | |
| 20260509063517 | 48 | 0.0 | 0.0 | 0.01 | 0.02 | 0.01 | 92 | 1012.8 | |
| 20260509063016 | 47 | 0.0 | 0.0 | 0.00 | 0.01 | 0.00 | 91 | 1012.9 | |
| 20260509062517 | 47 | 0.0 | 0.0 | 0.00 | 0.01 | 0.00 | 91 | 1012.9 | |
| 20260509062016 | 47 | 0.0 | 0.0 | 0.00 | 0.01 | 0.00 | 91 | 1012.8 | |
| 20260509061516 | 47 | 0.0 | 0.0 | 0.00 | 0.01 | 0.00 | 91 | 1012.8 | |
| 20260509061016 | 47 | 0.0 | 0.0 | 0.00 | 0.01 | 0.00 | 91 | 1012.6 | |
| 20260509060516 | 47 | 0.0 | 0.0 | 0.00 | 0.01 | 0.00 | 91 | 1012.6 | |
| 20260509060016 | 47 | 0.0 | 0.0 | 0.00 | 0.01 | 0.00 | 91 | 1012.6 | |
| 20260509055516 | 47 | 0.0 | 0.0 | 0.00 | 0.01 | 0.00 | 91 | 1012.7 | |
| 20260509055016 | 47 | 0.0 | 0.0 | 0.00 | 0.02 | 0.00 | 91 | 1012.6 | |
| 20260509054516 | 47 | 0.0 | 0.0 | 0.00 | 0.02 | 0.00 | 91 | 1012.6 | |
| 20260509054016 | 47 | 0.0 | 0.0 | 0.00 | 0.02 | 0.00 | 91 | 1012.7 | |
| 20260509053516 | 47 | 0.0 | 0.0 | 0.00 | 0.03 | 0.00 | 92 | 1013.0 | |
| 20260509053016 | 47 | 0.0 | 0.0 | 0.00 | 0.03 | 0.00 | 92 | 1013.0 | |
| 20260509052516 | 47 | 0.0 | 0.0 | 0.00 | 0.03 | 0.00 | 91 | 1013.1 | |
| 20260509052016 | 47 | 0.0 | 0.0 | 0.00 | 0.03 | 0.00 | 91 | 1013.1 | |
| 20260509051516 | 47 | 0.0 | 0.0 | 0.00 | 0.03 | 0.00 | 91 | 1013.0 | |
| 20260509051016 | 47 | 0.0 | 0.0 | 0.00 | 0.03 | 0.00 | 91 | 1013.1 | |
| 20260509050516 | 47 | 0.0 | 0.0 | 0.00 | 0.03 | 0.00 | 90 | 1013.1 | |
| 20260509050016 | 47 | 0.0 | 0.0 | 0.00 | 0.03 | 0.00 | 90 | 1013.1 | |
| 20260509045516 | 47 | 0.0 | 0.0 | 0.00 | 0.03 | 0.00 | 90 | 1013.1 | |
| 20260509045017 | 47 | 0.0 | 0.0 | 0.00 | 0.03 | 0.00 | 89 | 1013.1 | |
| 20260509044517 | 48 | 0.0 | 0.0 | 0.00 | 0.03 | 0.00 | 89 | 1013.0 | |
| 20260509044016 | 48 | 0.0 | 0.0 | 0.00 | 0.03 | 0.00 | 89 | 1013.0 | |
| 20260509043516 | 48 | 0.0 | 0.0 | 0.00 | 0.03 | 0.00 | 89 | 1013.0 | |
| 20260509043016 | 48 | 0.0 | 0.0 | 0.00 | 0.03 | 0.00 | 89 | 1013.0 | |
| 20260509042516 | 48 | 0.0 | 0.0 | 0.00 | 0.03 | 0.00 | 89 | 1013.0 | |
| 20260509042016 | 48 | 0.0 | 0.0 | 0.00 | 0.03 | 0.00 | 89 | 1013.0 | |
| 20260509041516 | 49 | 0.0 | 0.0 | 0.00 | 0.03 | 0.00 | 89 | 1012.9 | |
| 20260509041016 | 49 | 0.0 | 0.0 | 0.00 | 0.03 | 0.00 | 89 | 1013.0 | |
| 20260509040516 | 49 | 0.0 | 0.0 | 0.00 | 0.03 | 0.00 | 89 | 1013.0 | |
| 20260509040021 | 49 | 0.0 | 0.0 | 0.00 | 0.03 | 0.03 | 89 | 1013.1 | |
| 20260509035515 | 49 | 0.0 | 0.0 | 0.00 | 0.03 | 0.03 | 88 | 1013.1 | |
| 20260509035015 | 49 | 0.0 | 0.0 | 0.00 | 0.03 | 0.03 | 88 | 1013.1 | |
| 20260509034515 | 49 | 0.0 | 0.0 | 0.00 | 0.03 | 0.03 | 88 | 1013.0 | |
| 20260509034016 | 49 | 0.0 | 0.0 | 0.00 | 0.03 | 0.03 | 88 | 1013.1 | |
| 20260509033515 | 49 | 0.0 | 0.0 | 0.00 | 0.03 | 0.03 | 88 | 1013.1 | |
| 20260509033015 | 49 | 0.0 | 0.0 | 0.00 | 0.03 | 0.03 | 87 | 1013.2 | |
| 20260509032515 | 49 | 0.0 | 0.0 | 0.00 | 0.03 | 0.03 | 87 | 1013.0 | |
| 20260509032015 | 49 | 0.0 | 0.0 | 0.00 | 0.03 | 0.03 | 87 | 1013.0 | |
| 20260509031515 | 49 | 0.0 | 0.0 | 0.00 | 0.03 | 0.03 | 86 | 1013.1 | |
| 20260509031015 | 49 | 0.0 | 0.0 | 0.00 | 0.03 | 0.03 | 86 | 1013.2 | |
| 20260509030515 | 49 | 0.0 | 0.0 | 0.00 | 0.03 | 0.03 | 85 | 1013.1 | |
| 20260509030015 | 49 | 0.0 | 0.0 | 0.00 | 0.03 | 0.03 | 85 | 1013.1 | |
| 20260509025515 | 49 | 0.0 | 0.0 | 0.00 | 0.03 | 0.03 | 84 | 1013.0 | |
| 20260509025017 | 49 | 0.0 | 0.0 | 0.00 | 0.03 | 0.03 | 83 | 1012.9 | |
| 20260509024517 | 49 | 0.0 | 0.0 | 0.00 | 0.03 | 0.03 | 83 | 1012.8 | |
| 20260509024017 | 49 | 0.0 | 0.0 | 0.00 | 0.03 | 0.03 | 83 | 1012.9 | |
| 20260509023517 | 49 | 0.0 | 0.0 | 0.00 | 0.03 | 0.03 | 82 | 1012.8 | |
| 20260509023017 | 49 | 0.0 | 0.0 | 0.00 | 0.03 | 0.03 | 82 | 1012.8 | |
| 20260509022517 | 49 | 0.0 | 0.0 | 0.00 | 0.03 | 0.03 | 82 | 1012.8 | |
| 20260509022017 | 49 | 0.0 | 0.0 | 0.00 | 0.03 | 0.03 | 83 | 1012.8 | |
| 20260509021517 | 49 | 0.0 | 0.0 | 0.00 | 0.03 | 0.03 | 83 | 1012.7 | |
| 20260509021017 | 49 | 0.0 | 0.0 | 0.00 | 0.03 | 0.03 | 83 | 1012.7 | |
| 20260509020517 | 49 | 0.0 | 0.0 | 0.00 | 0.03 | 0.03 | 83 | 1012.7 | |
| 20260509020017 | 49 | 0.0 | 0.0 | 0.00 | 0.03 | 0.03 | 83 | 1012.8 | |
| 20260509015517 | 49 | 0.0 | 0.0 | 0.00 | 0.03 | 0.03 | 81 | 1012.8 | |
| 20260509015017 | 49 | 0.0 | 0.0 | 0.00 | 0.03 | 0.03 | 82 | 1012.7 | |
| 20260509014517 | 49 | 0.0 | 0.0 | 0.00 | 0.03 | 0.03 | 82 | 1012.6 | |
| 20260509014017 | 49 | 0.0 | 0.0 | 0.00 | 0.03 | 0.03 | 81 | 1012.5 | |
| 20260509013517 | 49 | 0.0 | 0.0 | 0.00 | 0.03 | 0.03 | 81 | 1012.5 | |
| 20260509013017 | 49 | 0.0 | 0.0 | 0.00 | 0.03 | 0.03 | 81 | 1012.5 | |
| 20260509012516 | 49 | 0.0 | 0.0 | 0.00 | 0.03 | 0.03 | 80 | 1012.5 | |
| 20260509012016 | 49 | 0.0 | 0.0 | 0.00 | 0.03 | 0.03 | 80 | 1012.4 | |
| 20260509011516 | 49 | 0.0 | 0.0 | 0.00 | 0.03 | 0.03 | 79 | 1012.3 | |
| 20260509011022 | 49 | 0.0 | 0.0 | 0.00 | 0.03 | 0.03 | 78 | 1012.3 | |
| 20260509010517 | 49 | 0.0 | 0.0 | 0.00 | 0.03 | 0.03 | 77 | 1012.3 | |
| 20260509010016 | 49 | 0.0 | 0.0 | 0.00 | 0.03 | 0.03 | 75 | 1012.3 | |
| 20260509005516 | 50 | 0.0 | 0.0 | 0.00 | 0.03 | 0.03 | 75 | 1012.1 | |
| 20260509005017 | 50 | 0.0 | 0.0 | 0.00 | 0.03 | 0.03 | 75 | 1012.0 | |
| 20260509004516 | 51 | 0.0 | 0.0 | 0.00 | 0.03 | 0.03 | 72 | 1011.8 | |
| 20260509004016 | 51 | 0.0 | 0.0 | 0.00 | 0.03 | 0.03 | 71 | 1011.7 | |
| 20260509003516 | 52 | 0.0 | 0.0 | 0.00 | 0.03 | 0.03 | 69 | 1011.7 | |
| 20260509003016 | 52 | 0.0 | 0.0 | 0.00 | 0.03 | 0.03 | 69 | 1011.6 | |
| 20260509002517 | 53 | 0.0 | 0.0 | 0.00 | 0.03 | 0.03 | 67 | 1011.6 | |
| 20260509002016 | 53 | 0.0 | 0.0 | 0.00 | 0.03 | 0.03 | 68 | 1011.5 | |
| 20260509001516 | 54 | 0.0 | 0.0 | 0.00 | 0.03 | 0.03 | 70 | 1011.5 | |
| 20260509001016 | 55 | 0.0 | 0.0 | 0.00 | 0.03 | 0.03 | 63 | 1011.4 | |
| 20260509000516 | 56 | 0.0 | 0.0 | 0.00 | 0.03 | 0.03 | 65 | 1011.4 | |
| 20260509000016 | 56 | 0.0 | 0.0 | 0.00 | 0.03 | 0.03 | 66 | 1011.4 | |
| 20260508235516 | 57 | 0.0 | 0.0 | 0.00 | 0.03 | 0.03 | 59 | 1011.4 | |
| 20260508235016 | 57 | 0.0 | 2.0 | 0.00 | 0.03 | 0.03 | 56 | 1011.4 | |
| 20260508234516 | 57 | 225 | 1.0 | 3.0 | 0.00 | 0.03 | 0.03 | 56 | 1011.3 |
| 20260508234016 | 57 | 0.0 | 2.0 | 0.00 | 0.03 | 0.03 | 56 | 1011.2 | |
| 20260508233516 | 57 | 225 | 2.0 | 3.0 | 0.00 | 0.03 | 0.03 | 54 | 1011.2 |
| 20260508233016 | 58 | 270 | 1.0 | 3.0 | 0.00 | 0.03 | 0.03 | 55 | 1011.3 |
| 20260508232516 | 58 | 0.0 | 0.0 | 0.00 | 0.03 | 0.03 | 56 | 1011.3 | |
| 20260508232016 | 58 | 0.0 | 0.0 | 0.00 | 0.03 | 0.03 | 57 | 1011.2 | |
| 20260508231516 | 58 | 0.0 | 0.0 | 0.00 | 0.03 | 0.03 | 57 | 1011.1 | |
| 20260508231016 | 58 | 0.0 | 1.0 | 0.00 | 0.03 | 0.03 | 53 | 1011.0 | |
| 20260508230516 | 59 | 0.0 | 1.0 | 0.00 | 0.03 | 0.03 | 52 | 1011.0 | |
| 20260508230017 | 59 | 270 | 1.0 | 3.0 | 0.00 | 0.03 | 0.03 | 51 | 1011.0 |
| 20260508225516 | 59 | 270 | 1.0 | 3.0 | 0.00 | 0.03 | 0.03 | 51 | 1010.9 |
| 20260508225016 | 59 | 270 | 1.0 | 3.0 | 0.00 | 0.03 | 0.03 | 50 | 1010.9 |
| 20260508224516 | 59 | 270 | 1.0 | 3.0 | 0.00 | 0.03 | 0.03 | 49 | 1010.8 |
| 20260508224016 | 59 | 248 | 2.0 | 4.0 | 0.00 | 0.03 | 0.03 | 50 | 1010.8 |
| 20260508223516 | 59 | 293 | 1.0 | 6.0 | 0.00 | 0.03 | 0.03 | 51 | 1010.7 |
| 20260508223016 | 59 | 225 | 2.0 | 4.0 | 0.00 | 0.03 | 0.03 | 50 | 1010.7 |
| 20260508222516 | 59 | 225 | 3.0 | 9.0 | 0.00 | 0.03 | 0.03 | 49 | 1010.8 |
| 20260508222016 | 59 | 248 | 3.0 | 6.0 | 0.00 | 0.03 | 0.03 | 51 | 1010.8 |
| 20260508221516 | 60 | 225 | 3.0 | 5.0 | 0.00 | 0.03 | 0.03 | 51 | 1010.7 |
| 20260508221016 | 60 | 225 | 3.0 | 5.0 | 0.00 | 0.03 | 0.03 | 51 | 1010.7 |
| 20260508220516 | 60 | 203 | 3.0 | 7.0 | 0.00 | 0.03 | 0.03 | 49 | 1010.7 |
| 20260508220016 | 61 | 270 | 1.0 | 4.0 | 0.00 | 0.03 | 0.03 | 49 | 1010.7 |
| 20260508215516 | 61 | 270 | 3.0 | 9.0 | 0.00 | 0.03 | 0.03 | 48 | 1010.8 |
| 20260508215016 | 62 | 225 | 2.0 | 6.0 | 0.00 | 0.03 | 0.03 | 47 | 1010.8 |
| 20260508214516 | 63 | 225 | 4.0 | 8.0 | 0.00 | 0.03 | 0.03 | 47 | 1010.7 |
| 20260508214016 | 63 | 270 | 3.0 | 6.0 | 0.00 | 0.03 | 0.03 | 48 | 1010.7 |
| 20260508213517 | 62 | 225 | 3.0 | 6.0 | 0.00 | 0.03 | 0.03 | 48 | 1010.8 |
| 20260508213016 | 62 | 225 | 3.0 | 7.0 | 0.00 | 0.03 | 0.03 | 49 | 1010.8 |
| 20260508212516 | 61 | 293 | 3.0 | 7.0 | 0.00 | 0.03 | 0.03 | 52 | 1010.9 |
| 20260508212016 | 61 | 225 | 2.0 | 6.0 | 0.00 | 0.03 | 0.03 | 52 | 1010.8 |
| 20260508211516 | 62 | 248 | 3.0 | 6.0 | 0.00 | 0.03 | 0.03 | 48 | 1010.9 |
| 20260508211016 | 62 | 225 | 3.0 | 5.0 | 0.00 | 0.03 | 0.03 | 51 | 1010.9 |
| 20260508210516 | 62 | 270 | 3.0 | 7.0 | 0.00 | 0.03 | 0.03 | 50 | 1010.8 |
| 20260508210016 | 62 | 270 | 2.0 | 4.0 | 0.00 | 0.03 | 0.03 | 50 | 1010.8 |
| 20260508205516 | 61 | 248 | 3.0 | 8.0 | 0.00 | 0.03 | 0.03 | 51 | 1011.0 |
| 20260508205016 | 61 | 248 | 4.0 | 11.0 | 0.00 | 0.03 | 0.03 | 49 | 1011.0 |
| 20260508204516 | 62 | 248 | 4.0 | 8.0 | 0.00 | 0.03 | 0.03 | 50 | 1011.0 |
| 20260508204016 | 63 | 248 | 5.0 | 8.0 | 0.00 | 0.03 | 0.03 | 51 | 1011.0 |
| 20260508203516 | 63 | 248 | 4.0 | 7.0 | 0.00 | 0.03 | 0.03 | 50 | 1010.9 |
| 20260508203016 | 63 | 225 | 5.0 | 10.0 | 0.00 | 0.03 | 0.03 | 52 | 1010.8 |
| 20260508202516 | 63 | 225 | 4.0 | 9.0 | 0.00 | 0.03 | 0.03 | 52 | 1010.8 |
| 20260508202016 | 63 | 225 | 5.0 | 11.0 | 0.00 | 0.03 | 0.03 | 50 | 1010.9 |
| 20260508201516 | 63 | 225 | 3.0 | 8.0 | 0.00 | 0.03 | 0.03 | 54 | 1010.9 |
| 20260508201016 | 62 | 248 | 5.0 | 11.0 | 0.00 | 0.03 | 0.03 | 57 | 1011.0 |
| 20260508200516 | 61 | 270 | 3.0 | 6.0 | 0.00 | 0.03 | 0.03 | 56 | 1010.8 |
| 20260508200016 | 60 | 203 | 3.0 | 10.0 | 0.00 | 0.03 | 0.03 | 56 | 1010.8 |
| 20260508195516 | 59 | 203 | 4.0 | 8.0 | 0.00 | 0.03 | 0.03 | 60 | 1010.9 |
| 20260508195016 | 59 | 248 | 4.0 | 8.0 | 0.00 | 0.03 | 0.03 | 62 | 1011.0 |
| 20260508194516 | 59 | 203 | 4.0 | 10.0 | 0.00 | 0.03 | 0.03 | 60 | 1011.2 |
| 20260508194016 | 59 | 293 | 3.0 | 5.0 | 0.00 | 0.03 | 0.03 | 57 | 1011.1 |
| 20260508193516 | 60 | 225 | 3.0 | 7.0 | 0.00 | 0.03 | 0.03 | 58 | 1011.2 |
| 20260508193016 | 60 | 248 | 3.0 | 7.0 | 0.00 | 0.03 | 0.03 | 62 | 1011.1 |
| 20260508192516 | 59 | 225 | 5.0 | 8.0 | 0.00 | 0.03 | 0.03 | 60 | 1011.1 |
| 20260508192016 | 58 | 248 | 4.0 | 8.0 | 0.00 | 0.03 | 0.03 | 67 | 1011.2 |
| 20260508191516 | 57 | 270 | 4.0 | 9.0 | 0.00 | 0.03 | 0.03 | 63 | 1011.3 |
| 20260508191016 | 56 | 270 | 2.0 | 5.0 | 0.01 | 0.03 | 0.03 | 68 | 1011.4 |
| 20260508190516 | 56 | 225 | 4.0 | 8.0 | 0.01 | 0.03 | 0.03 | 66 | 1011.5 |
| 20260508190016 | 56 | 248 | 3.0 | 7.0 | 0.01 | 0.03 | 0.03 | 68 | 1011.4 |
| 20260508185516 | 56 | 225 | 4.0 | 9.0 | 0.01 | 0.03 | 0.03 | 68 | 1011.4 |
| 20260508185016 | 55 | 248 | 3.0 | 9.0 | 0.01 | 0.03 | 0.03 | 73 | 1011.4 |
| 20260508184516 | 55 | 248 | 3.0 | 6.0 | 0.01 | 0.03 | 0.03 | 74 | 1011.4 |
| 20260508184016 | 54 | 270 | 1.0 | 4.0 | 0.01 | 0.03 | 0.03 | 76 | 1011.3 |
| 20260508183517 | 53 | 248 | 2.0 | 5.0 | 0.01 | 0.03 | 0.03 | 79 | 1011.3 |
| 20260508183016 | 53 | 270 | 1.0 | 4.0 | 0.01 | 0.03 | 0.03 | 79 | 1011.4 |
| 20260508182516 | 53 | 248 | 2.0 | 5.0 | 0.01 | 0.03 | 0.03 | 77 | 1011.4 |
| 20260508182016 | 53 | 270 | 2.0 | 7.0 | 0.01 | 0.03 | 0.03 | 75 | 1011.4 |
| 20260508181516 | 54 | 293 | 3.0 | 9.0 | 0.01 | 0.03 | 0.03 | 74 | 1011.6 |
| 20260508181016 | 55 | 270 | 2.0 | 7.0 | 0.00 | 0.02 | 0.02 | 71 | 1011.6 |
| 20260508180516 | 56 | 315 | 2.0 | 4.0 | 0.00 | 0.02 | 0.02 | 65 | 1011.4 |
| 20260508180016 | 56 | 293 | 4.0 | 9.0 | 0.00 | 0.02 | 0.02 | 61 | 1011.3 |
| 20260508175516 | 57 | 248 | 4.0 | 7.0 | 0.00 | 0.02 | 0.02 | 60 | 1011.2 |
| 20260508175016 | 57 | 248 | 4.0 | 9.0 | 0.00 | 0.02 | 0.02 | 57 | 1011.0 |
| 20260508174516 | 57 | 225 | 5.0 | 11.0 | 0.00 | 0.02 | 0.02 | 57 | 1010.8 |
| 20260508174016 | 58 | 203 | 4.0 | 10.0 | 0.00 | 0.02 | 0.02 | 57 | 1010.8 |
| 20260508173516 | 59 | 203 | 6.0 | 12.0 | 0.00 | 0.02 | 0.02 | 55 | 1010.9 |
| 20260508173016 | 60 | 180 | 4.0 | 11.0 | 0.00 | 0.02 | 0.02 | 55 | 1010.9 |
| 20260508172516 | 60 | 225 | 4.0 | 9.0 | 0.00 | 0.02 | 0.02 | 60 | 1010.9 |
| 20260508172015 | 59 | 225 | 3.0 | 8.0 | 0.00 | 0.02 | 0.02 | 61 | 1010.9 |
| 20260508171516 | 58 | 270 | 4.0 | 9.0 | 0.00 | 0.02 | 0.02 | 58 | 1011.1 |
| 20260508171016 | 56 | 225 | 5.0 | 12.0 | 0.00 | 0.02 | 0.02 | 63 | 1011.3 |
| 20260508170515 | 56 | 248 | 4.0 | 10.0 | 0.00 | 0.02 | 0.02 | 60 | 1011.5 |
| 20260508170017 | 56 | 225 | 4.0 | 10.0 | 0.00 | 0.02 | 0.02 | 58 | 1011.4 |
| 20260508165516 | 57 | 225 | 1.0 | 4.0 | 0.00 | 0.02 | 0.02 | 59 | 1011.4 |
| 20260508165015 | 57 | 225 | 4.0 | 7.0 | 0.00 | 0.02 | 0.02 | 58 | 1011.4 |
| 20260508164516 | 57 | 248 | 4.0 | 11.0 | 0.00 | 0.02 | 0.02 | 61 | 1011.4 |
| 20260508164016 | 56 | 248 | 6.0 | 10.0 | 0.00 | 0.02 | 0.02 | 62 | 1011.6 |
| 20260508163516 | 56 | 225 | 5.0 | 11.0 | 0.00 | 0.02 | 0.02 | 61 | 1011.5 |
| 20260508163016 | 55 | 248 | 3.0 | 7.0 | 0.00 | 0.02 | 0.02 | 63 | 1011.7 |
| 20260508162516 | 55 | 248 | 3.0 | 8.0 | 0.00 | 0.02 | 0.02 | 62 | 1011.6 |
| 20260508162015 | 55 | 225 | 3.0 | 8.0 | 0.00 | 0.02 | 0.02 | 62 | 1011.7 |
| 20260508161515 | 55 | 203 | 3.0 | 6.0 | 0.00 | 0.02 | 0.02 | 62 | 1011.7 |
| 20260508161015 | 55 | 248 | 2.0 | 9.0 | 0.00 | 0.02 | 0.02 | 62 | 1011.7 |
| 20260508160515 | 55 | 225 | 4.0 | 7.0 | 0.00 | 0.02 | 0.02 | 61 | 1011.7 |
| 20260508160015 | 55 | 248 | 4.0 | 9.0 | 0.00 | 0.02 | 0.02 | 59 | 1011.7 |
| 20260508155515 | 55 | 225 | 4.0 | 8.0 | 0.00 | 0.02 | 0.02 | 60 | 1011.8 |
| 20260508155015 | 56 | 225 | 5.0 | 12.0 | 0.00 | 0.02 | 0.02 | 60 | 1011.9 |
| 20260508154515 | 56 | 248 | 4.0 | 13.0 | 0.00 | 0.02 | 0.02 | 61 | 1011.9 |
| 20260508154015 | 56 | 225 | 3.0 | 7.0 | 0.00 | 0.02 | 0.02 | 61 | 1011.8 |
| 20260508153515 | 56 | 225 | 4.0 | 9.0 | 0.00 | 0.02 | 0.02 | 59 | 1011.8 |
| 20260508153015 | 57 | 248 | 3.0 | 4.0 | 0.00 | 0.02 | 0.02 | 61 | 1011.8 |
| 20260508152516 | 57 | 203 | 4.0 | 10.0 | 0.00 | 0.02 | 0.02 | 59 | 1011.8 |
| 20260508152015 | 57 | 248 | 3.0 | 9.0 | 0.00 | 0.02 | 0.02 | 60 | 1011.8 |
| 20260508151515 | 57 | 248 | 4.0 | 10.0 | 0.00 | 0.02 | 0.02 | 59 | 1011.7 |
| 20260508151015 | 57 | 203 | 2.0 | 7.0 | 0.00 | 0.02 | 0.02 | 59 | 1011.7 |
| 20260508150515 | 57 | 203 | 3.0 | 8.0 | 0.00 | 0.02 | 0.02 | 58 | 1011.8 |
| 20260508150015 | 58 | 225 | 4.0 | 7.0 | 0.00 | 0.02 | 0.02 | 59 | 1011.8 |
| 20260508145515 | 58 | 225 | 3.0 | 10.0 | 0.00 | 0.02 | 0.02 | 56 | 1011.8 |
| 20260508145015 | 58 | 270 | 3.0 | 7.0 | 0.00 | 0.02 | 0.02 | 58 | 1011.9 |
| 20260508144515 | 58 | 225 | 3.0 | 9.0 | 0.00 | 0.02 | 0.02 | 56 | 1011.9 |
| 20260508144015 | 58 | 225 | 4.0 | 7.0 | 0.00 | 0.02 | 0.02 | 60 | 1011.9 |
| 20260508143515 | 57 | 203 | 2.0 | 5.0 | 0.00 | 0.02 | 0.02 | 62 | 1012.0 |
| 20260508143015 | 57 | 225 | 3.0 | 7.0 | 0.00 | 0.02 | 0.02 | 63 | 1012.1 |
| 20260508142515 | 56 | 0 | 2.0 | 9.0 | 0.00 | 0.02 | 0.02 | 64 | 1012.0 |
| 20260508142015 | 56 | 248 | 3.0 | 8.0 | 0.00 | 0.02 | 0.02 | 65 | 1012.2 |
| 20260508141515 | 56 | 248 | 3.0 | 6.0 | 0.00 | 0.02 | 0.02 | 65 | 1012.3 |
| 20260508141015 | 56 | 248 | 3.0 | 7.0 | 0.00 | 0.02 | 0.02 | 66 | 1012.3 |
| 20260508140515 | 57 | 270 | 3.0 | 7.0 | 0.00 | 0.02 | 0.02 | 62 | 1012.3 |
| 20260508140015 | 57 | 248 | 4.0 | 8.0 | 0.00 | 0.02 | 0.02 | 66 | 1012.3 |
| 20260508135515 | 57 | 225 | 4.0 | 8.0 | 0.00 | 0.02 | 0.02 | 69 | 1012.3 |
| 20260508135015 | 56 | 225 | 4.0 | 8.0 | 0.00 | 0.02 | 0.02 | 69 | 1012.3 |
| 20260508134515 | 56 | 225 | 2.0 | 7.0 | 0.00 | 0.02 | 0.02 | 67 | 1012.3 |
| 20260508134015 | 56 | 270 | 3.0 | 8.0 | 0.00 | 0.02 | 0.02 | 69 | 1012.2 |
| 20260508133515 | 55 | 203 | 3.0 | 10.0 | 0.00 | 0.02 | 0.02 | 69 | 1012.2 |
| 20260508133015 | 55 | 225 | 3.0 | 6.0 | 0.00 | 0.02 | 0.02 | 71 | 1012.3 |
| 20260508132515 | 55 | 225 | 3.0 | 7.0 | 0.00 | 0.02 | 0.02 | 72 | 1012.2 |
| 20260508132015 | 54 | 248 | 3.0 | 6.0 | 0.00 | 0.02 | 0.02 | 72 | 1012.2 |
| 20260508131516 | 54 | 225 | 3.0 | 7.0 | 0.00 | 0.02 | 0.02 | 72 | 1012.3 |
| 20260508131015 | 54 | 248 | 3.0 | 5.0 | 0.00 | 0.02 | 0.02 | 75 | 1012.3 |
| 20260508130515 | 54 | 225 | 3.0 | 7.0 | 0.00 | 0.02 | 0.02 | 72 | 1012.3 |
| 20260508130015 | 54 | 248 | 2.0 | 6.0 | 0.00 | 0.02 | 0.02 | 73 | 1012.4 |
| 20260508125515 | 53 | 248 | 2.0 | 5.0 | 0.00 | 0.02 | 0.02 | 72 | 1012.5 |
| 20260508125015 | 53 | 225 | 4.0 | 8.0 | 0.00 | 0.02 | 0.02 | 75 | 1012.5 |
| 20260508124515 | 53 | 225 | 4.0 | 8.0 | 0.00 | 0.02 | 0.02 | 76 | 1012.5 |
| 20260508124015 | 53 | 225 | 3.0 | 8.0 | 0.00 | 0.02 | 0.02 | 78 | 1012.5 |
| 20260508123515 | 52 | 248 | 3.0 | 6.0 | 0.00 | 0.02 | 0.02 | 77 | 1012.4 |
| 20260508123015 | 52 | 248 | 2.0 | 5.0 | 0.00 | 0.02 | 0.02 | 79 | 1012.3 |
| 20260508122515 | 51 | 293 | 3.0 | 7.0 | 0.00 | 0.02 | 0.02 | 79 | 1012.3 |
| 20260508122015 | 50 | 293 | 2.0 | 4.0 | 0.00 | 0.02 | 0.02 | 82 | 1012.2 |
| 20260508121515 | 49 | 293 | 1.0 | 3.0 | 0.00 | 0.02 | 0.02 | 85 | 1012.1 |
| 20260508121015 | 48 | 293 | 3.0 | 10.0 | 0.00 | 0.02 | 0.02 | 84 | 1011.9 |
| 20260508120515 | 48 | 248 | 2.0 | 8.0 | 0.00 | 0.02 | 0.02 | 86 | 1012.3 |
| 20260508120016 | 47 | 248 | 2.0 | 7.0 | 0.00 | 0.02 | 0.02 | 90 | 1012.4 |
| 20260508115515 | 46 | 270 | 2.0 | 6.0 | 0.00 | 0.02 | 0.02 | 93 | 1012.5 |
| 20260508115015 | 45 | 248 | 3.0 | 6.0 | 0.00 | 0.02 | 0.02 | 94 | 1012.6 |
| 20260508114515 | 45 | 248 | 2.0 | 6.0 | 0.00 | 0.02 | 0.02 | 95 | 1012.5 |
| 20260508114022 | 44 | 248 | 2.0 | 4.0 | 0.00 | 0.02 | 0.02 | 95 | 1012.4 |
| 20260508113515 | 44 | 248 | 3.0 | 5.0 | 0.00 | 0.02 | 0.02 | 96 | 1012.5 |
| 20260508113015 | 43 | 180 | 2.0 | 4.0 | 0.00 | 0.02 | 0.02 | 96 | 1012.4 |
| 20260508112515 | 43 | 225 | 1.0 | 5.0 | 0.00 | 0.02 | 0.02 | 96 | 1012.5 |
| 20260508112015 | 42 | 225 | 2.0 | 5.0 | 0.00 | 0.02 | 0.02 | 96 | 1012.5 |
| 20260508111515 | 42 | 248 | 2.0 | 4.0 | 0.00 | 0.02 | 0.02 | 96 | 1012.5 |
| 20260508111015 | 41 | 225 | 2.0 | 4.0 | 0.00 | 0.02 | 0.02 | 96 | 1012.4 |
| 20260508110515 | 40 | 0.0 | 3.0 | 0.00 | 0.02 | 0.02 | 96 | 1012.3 | |
| 20260508110015 | 40 | 0.0 | 0.0 | 0.00 | 0.02 | 0.02 | 95 | 1012.2 | |
| 20260508105515 | 40 | 0.0 | 0.0 | 0.00 | 0.02 | 0.02 | 95 | 1012.1 | |
| 20260508105015 | 40 | 0.0 | 0.0 | 0.00 | 0.02 | 0.02 | 94 | 1011.9 | |
| 20260508104515 | 40 | 0.0 | 0.0 | 0.00 | 0.02 | 0.02 | 95 | 1011.8 | |
| 20260508104015 | 40 | 0.0 | 0.0 | 0.00 | 0.02 | 0.02 | 94 | 1011.8 | |
| 20260508103515 | 40 | 0.0 | 0.0 | 0.00 | 0.02 | 0.02 | 94 | 1011.9 |